This is the latest recevied weather packets stored in our database for station/object E7HQ-1. If no packets are shown the sender has not sent any weather packets the latest 10 day(s).
| Time | Temp. | Humidity | Pressure | Rain* | Wind** | Luminosity | Snow |
|---|---|---|---|---|---|---|---|
| 1777659120 | 9.44° C | 37% | 1033.3 hPa | - | - | - | - |
| 1777658220 | 9.44° C | 37% | 1033.3 hPa | - | - | - | - |
| 1777657320 | 9.44° C | 35% | 1033.2 hPa | - | - | - | - |
| 1777656420 | 9.44° C | 35% | 1033.1 hPa | - | - | - | - |
| 1777655519 | 10° C | 34% | 1033.1 hPa | - | - | - | - |
| 1777654619 | 10° C | 35% | 1033 hPa | - | - | - | - |
| 1777653719 | 10° C | 33% | 1032.9 hPa | - | - | - | - |
| 1777652819 | 10.56° C | 33% | 1032.9 hPa | - | - | - | - |
| 1777651918 | 11.11° C | 33% | 1032.9 hPa | - | - | - | - |
| 1777651017 | 10.56° C | 33% | 1032.9 hPa | - | - | - | - |
| 1777650117 | 11.11° C | 32% | 1032.8 hPa | - | - | - | - |
| 1777649217 | 11.11° C | 32% | 1032.9 hPa | - | - | - | - |
| 1777648317 | 11.67° C | 32% | 1033 hPa | - | - | - | - |
| 1777647417 | 12.22° C | 30% | 1033 hPa | - | - | - | - |
| 1777646516 | 12.22° C | 31% | 1033.1 hPa | - | - | - | - |
| 1777645616 | 12.22° C | 30% | 1033 hPa | - | - | - | - |
| 1777644716 | 12.22° C | 32% | 1033 hPa | - | - | - | - |
| 1777643816 | 11.67° C | 31% | 1033.1 hPa | - | - | - | - |
| 1777642915 | 12.22° C | 29% | 1033.1 hPa | - | - | - | - |
| 1777642015 | 12.22° C | 28% | 1033.1 hPa | - | - | - | - |
| 1777641115 | 12.78° C | 28% | 1033.1 hPa | - | - | - | - |
| 1777640215 | 13.33° C | 26% | 1033.1 hPa | - | - | - | - |
| 1777639314 | 13.33° C | 24% | 1033.3 hPa | - | - | - | - |
| 1777638413 | 13.89° C | 22% | 1033.2 hPa | - | - | - | - |
| 1777637521 | 13.89° C | 21% | 1033.3 hPa | - | - | - | - |
* Rain since midnight (hover to see other rain measurements)
** Current wind speed in m/s (hover to see current wind gust speed)